Regional Weather Roundup
Issued by NWS

Current Version | Previous Version | Text Only | Print | Product List | Glossary On
Versions: 1 2 3 4 5 6 7 8 9 10 11 12 13 14 15 16 17 18 19 20 21 22 23 24 25 26 27 28 29 30 31 32 33 34 35 36 37 38 39 40 41 42 43 44 45 46 47 48 49 50
000
ASUS43 KMPX 211510
RWRMN
WEATHER ROUNDUP FOR MINNESOTA
NATIONAL WEATHER SERVICE TWIN CITIES/CHANHASSEN MN
1000 AM CDT MON MAY 21 2018


NOTE: "FAIR" INDICATES FEW OR NO CLOUDS BELOW 12,000 FEET WITH NO
SIGNIFICANT WEATHER AND/OR OBSTRUCTIONS TO VISIBILITY. N/A MEANS
CURRENT SKY AND/OR WEATHER CONDITIONS ARE NOT AVAILABLE.

MNZ060>063-068>070-211600-
   Twin Cities Metro

CITY           SKY/WX    TMP DP  RH WIND       PRES   REMARKS
TWIN CITIES    CLOUDY    63  48  58 SE7       30.08F
ST PAUL        CLOUDY    62  46  55 SE9       30.09F
CRYSTAL        CLOUDY    62  45  53 E8        30.07F
BLAINE         CLOUDY    64  45  48 SE7       30.08F
LAKEVILLE      CLOUDY    61  50  67 E9        30.08S
EDEN PRAIRIE   CLOUDY    63  49  60 SE7       30.07S
SOUTH ST PAUL  FAIR      62  44  50 SE7       30.09R
LAKE ELMO      CLOUDY    63  41  45 E9        30.09F
$$
MNZ001>005-007-008-013>017-022>024-027-028-211600-
   Northwest Minnesota

CITY           SKY/WX    TMP DP  RH WIND       PRES   REMARKS
BEMIDJI        FAIR      64  39  41 SE3       30.11F
HALLOCK        FAIR      64  37  36 S6        30.07F
ROSEAU         FAIR      64  45  48 CALM      30.09F
WARROAD        FAIR      64  45  48 CALM      30.11S
THIEF RVR FALL FAIR      68  36  30 SE9       30.10S
CROOKSTON      FAIR      66  34  30 S6        30.08F
FOSSTON        FAIR      64  36  34 SE6       30.10S
DETROIT LAKES  FAIR      63  36  36 CALM      30.09F
MOORHEAD       FAIR      64  37  36 SE7       30.07S
PARK RAPIDS    FAIR      64  41  42 SE8       30.09F
MAHNOMEN       FAIR      67  33  28 SE8       30.08F
$$
MNZ006-009>011-018-025>026-211600-
   North Central Minnesota

CITY           SKY/WX    TMP DP  RH WIND       PRES   REMARKS
BAUDETTE       FAIR      67  40  37 CALM      30.11F
FLAG ISLAND    FAIR      55  45  67 SE9       30.09F
INTL FALLS     FAIR      68  34  28 W6        30.12F
WASKISH        PTSUNNY   66  43  42 W3        30.10F
BIG FORK       FAIR      66  36  32 S3        30.12F
LONGVILLE      FAIR      64  41  42 SE5       30.10F
GRAND RAPIDS   FAIR      63  40  42 S5        30.14F
CRANE LAKE     FAIR      64  32  29 CALM      30.14F
ORR            FAIR      66  25  20 CALM      30.10F
COOK           FAIR      66  32  28 CALM      30.13F
WALKER         FAIR      60  40  48 E5        30.10F
$$
MNZ012-019>021-037-211600-
   Northeast Minnesota

CITY           SKY/WX    TMP DP  RH WIND       PRES   REMARKS
DULUTH         FAIR      65  40  39 VRB3      30.13F
ELY            FAIR      66  25  20 SE3       30.13F
HIBBING        FAIR      62  34  35 CALM      30.13F
EVELETH        FAIR      64  34  32 CALM      30.14F
DULUTH HARBOR  FAIR      48  43  81 N3        30.16S
TWO HARBORS    FAIR      68  43  40 SE6       30.12F
SILVER BAY     FAIR      68  34  28 S3        30.12F
GRAND MARAIS     N/A     42  35  76 CALM      30.16F
G MARAIS ARPRT FAIR      64  27  24 CALM      30.17F
$$
MNZ029>031-032-039>041-046>048-054>057-064-211600-
   West Central Minnesota

CITY           SKY/WX    TMP DP  RH WIND       PRES   REMARKS
FERGUS FALLS   CLOUDY    61  41  48 SE6       30.04S
WHEATON        CLOUDY    61  45  55 E8        30.07F
MORRIS         CLOUDY    61  50  67 E8        30.06S
ALEXANDRIA     CLOUDY    57  47  69 E6        30.09F
ELBOW LAKE     CLOUDY    58  46  63 SE8       30.07F
WADENA         PTSUNNY   57  43  58 E7        30.09S
GLENWOOD       CLOUDY    54  50  87 E7        30.08F
APPLETON       CLOUDY    61  54  77 E8        30.05F
BENSON         CLOUDY    57  52  82 SE5       30.08S
ORTONVILLE     DRIZZLE  N/A N/A N/A SE7       30.05S
MADISON        LGT RAIN  63  55  77 SE8       30.05S
WILLMAR        CLOUDY    55  55 100 E7        30.09S
$$
MNZ033>034-036-042>043-049>051-058-059-211600-
   Central Minnesota

CITY           SKY/WX    TMP DP  RH WIND       PRES   REMARKS
ST CLOUD       CLOUDY    57  49  74 E5        30.09S
SAUK CENTRE    CLOUDY    53  49  86 E5        30.09S
PAYNESVILLE    CLOUDY    55  53  94 E6        30.09S
AITKIN         FAIR      64  32  29 SE9       30.10S
PINE RIVER     FAIR      61  43  51 S5        30.13F
BRAINERD       CLOUDY    63  40  42 VRB5      30.10F
STAPLES        CLOUDY    57  39  51 SE5       30.10S
LONG PRAIRIE   LGT RAIN  54  43  66 NE6       30.10S
LITTLE FALLS   PTSUNNY   59  45  58 SE7       30.10S
LITCHFIELD     LGT RAIN  57  57 100 E5        30.08S
BUFFALO        CLOUDY    61  49  65 E7        30.09S
MAPLE LAKE     CLOUDY    61  53  73 E3        30.09S
HUTCHINSON     CLOUDY    58  56  94 E5        30.08F
$$
MNZ037-044-045-052-053-211600-
   East Central Minnesota

CITY           SKY/WX    TMP DP  RH WIND       PRES   REMARKS
PRINCETON      CLOUDY    63  46  55 E3        30.09F
MORA           CLOUDY    59  43  55 E6        30.12F
CAMBRIDGE      CLOUDY    63  46  55 E6        30.10F
RUSH CITY      CLOUDY    61  41  48 E3        30.11F
MOOSE LAKE     FAIR      61  39  44 CALM      30.12F
HINCKLEY       CLOUDY    63  37  39 E9        30.12F
CLOQUET        FAIR      61  30  31 SE3       30.14S
MCGREGOR       FAIR      64  39  39 SE6       30.12F
$$
MNZ071>073-080-081-089-090-097-098-211600-
   Southwest Minnesota

CITY           SKY/WX    TMP DP  RH WIND       PRES   REMARKS
MONTEVIDEO     CLOUDY    59  54  82 S7        30.06S
GRANITE FALLS  RAIN      58  56  94 SE8       30.07S
CANBY          CLOUDY    58  56  94 E5        30.06S FOG
MARSHALL       LGT RAIN  56  55  97 SE7       30.06S
REDWOOD FALLS  LGT RAIN  56  56 100 SE7       30.06S FOG
OLIVIA         LGT RAIN  55  55 100 SE8       30.06S
PIPESTONE      CLOUDY    55  55 100 SE5       30.05S FOG
WINDOM         HAZE      55  43  62 SE6       30.06R VSB 1/2
WORTHINGTON    CLOUDY    55  55 100 SE6       30.06S FOG
JACKSON        FOG       54  54 100 SE5       30.07S VSB 1/2
TRACY          CLOUDY    56  56  99 SE6       30.06R
SLAYTON        CLOUDY    55  55  97 SE6       30.06F FOG
$$
MNZ065>067-074>077-082>085-091>093-211600-
   South Central Minnesota

CITY           SKY/WX    TMP DP  RH WIND       PRES   REMARKS
MANKATO        CLOUDY    58  54  86 SE8       30.08S
NEW ULM        CLOUDY    57  54  88 SE5       30.07S
ST JAMES       CLOUDY    57  55  94 SE8       30.07S FOG
FAIRMONT       LGT RAIN  57  55  93 SE7       30.06F
GLENCOE        CLOUDY    59  54  81 E6        30.07F
FARIBAULT      CLOUDY    61  52  72 CALM      30.08S
OWATONNA       CLOUDY    61  52  72 E8        30.07F
WASECA         CLOUDY    63  54  72 E8        30.08S
ALBERT LEA     CLOUDY    57  50  77 SE6       30.07R
$$
MNZ078>079-086>088-094>096-211600-
   Southeast Minnesota

CITY           SKY/WX    TMP DP  RH WIND       PRES   REMARKS
ROCHESTER      CLOUDY    57  50  77 E9        30.09S
RED WING       CLOUDY    63  37  39 SE8       30.08S
STANTON        CLOUDY    62  50  63 E7        30.07F
DODGE CENTER   CLOUDY    57  48  72 E9        30.08S
WINONA         CLOUDY    55  41  58 SE8       30.08S
AUSTIN         CLOUDY    55  50  82 SE7       30.07R
PRESTON        LGT RAIN  52  48  85 E7        30.09R
$$
ABBREVIATIONS USED IN REMARKS
   TC - TEMPERATURES IN CELSIUS
  WCI - WIND CHILL INDEX
   HX - HEAT INDEX
  VSB - VISIBILITY
$$




USA.gov is the U.S. government's official web portal to all federal, state and local government web resources and services.